GW5361 Weather Reports


time (UTC)temp
C
wind
direction
speed
KPH
gust
KPH
rain 1hr
cm
rain 24hr
cm
rain mn
cm
humidity
%
barometer
mb
20260504235004 12 283 0.0 6.4 0.00 0.00 0.00 41 1013.0
20260504234511 12 88 1.6 8.0 0.00 0.00 0.00 39 1013.0
20260504234004 13 88 1.6 9.7 0.00 0.00 0.00 39 1013.0
20260504233503 13 128 1.6 9.7 0.00 0.00 0.00 39 1013.0
20260504233017 12 82 3.2 6.4 0.00 0.00 0.00 40 1012.9
20260504232507 12 240 1.6 6.4 0.00 0.00 0.00 39 1012.9
20260504232007 12 66 1.6 11.3 0.00 0.00 0.00 41 1012.8
20260504231526 12 146 1.6 11.3 0.00 0.00 0.00 42 1012.8
20260504231014 12 159 3.2 9.7 0.00 0.00 0.00 41 1012.8
20260504230509 12 186 0.0 6.4 0.00 0.00 0.00 42 1012.8
20260504230020 13 89 0.0 4.8 0.00 0.00 0.00 40 1012.8
20260504225503 12 159 1.6 4.8 0.00 0.00 0.00 39 1012.8
20260504225004 13 5 1.6 6.4 0.00 0.00 0.00 39 1012.8
20260504224508 13 100 0.0 9.7 0.00 0.00 0.00 41 1012.8
20260504224005 13 144 0.0 9.7 0.00 0.00 0.00 40 1012.8
20260504223504 13 55 0.0 9.7 0.00 0.00 0.00 40 1012.8
20260504223012 13 317 0.0 9.7 0.00 0.00 0.00 39 1012.8
20260504222504 13 61 1.6 6.4 0.00 0.00 0.00 40 1012.8
20260504222006 13 178 0.0 6.4 0.00 0.00 0.00 40 1012.7
20260504221514 13 19 0.0 6.4 0.00 0.00 0.00 38 1012.7
20260504221008 13 325 0.0 14.5 0.00 0.00 0.00 40 1012.8
20260504220508 13 134 1.6 14.5 0.00 0.00 0.00 40 1012.8
20260504220020 13 258 1.6 11.3 0.00 0.00 0.00 41 1012.8
20260504215509 13 336 3.2 11.3 0.00 0.00 0.00 40 1012.9
20260504215009 13 145 3.2 11.3 0.00 0.00 0.00 42 1012.9
20260504214522 13 186 1.6 6.4 0.00 0.00 0.00 41 1012.9
20260504214004 13 352 0.0 6.4 0.00 0.00 0.00 41 1013.0
20260504213505 12 220 1.6 4.8 0.00 0.00 0.00 43 1012.9
20260504213012 13 263 1.6 8.0 0.00 0.00 0.00 42 1013.0
20260504212506 13 76 1.6 8.0 0.00 0.00 0.00 42 1013.0
20260504212005 13 211 1.6 8.0 0.00 0.00 0.00 41 1013.0
20260504211515 12 162 3.2 9.7 0.00 0.00 0.00 40 1013.0
20260504211004 13 171 1.6 9.7 0.00 0.00 0.00 40 1013.0
20260504210504 13 42 1.6 11.3 0.00 0.00 0.00 42 1013.0
20260504210020 12 143 4.8 11.3 0.00 0.00 0.00 43 1013.1
20260504205507 13 51 1.6 11.3 0.00 0.00 0.00 42 1013.0
20260504205012 13 106 1.6 6.4 0.00 0.00 0.00 41 1013.1
20260504204521 12 315 1.6 6.4 0.00 0.00 0.00 42 1013.1
20260504204011 12 211 0.0 8.0 0.00 0.00 0.00 42 1013.1
20260504203513 12 200 3.2 8.0 0.00 0.00 0.00 43 1013.1
20260504203031 12 259 1.6 11.3 0.00 0.00 0.00 44 1013.2
20260504202503 12 195 4.8 11.3 0.00 0.00 0.00 44 1013.2
20260504202003 12 178 0.0 9.7 0.00 0.00 0.00 44 1013.2
20260504201512 12 322 1.6 9.7 0.00 0.00 0.00 46 1013.3
20260504201005 12 194 3.2 9.7 0.00 0.00 0.00 43 1013.2
20260504200509 12 167 3.2 9.7 0.00 0.00 0.00 45 1013.2
20260504200018 12 171 3.2 9.7 0.00 0.00 0.00 42 1013.2
20260504195506 12 227 3.2 8.0 0.00 0.00 0.00 44 1013.2
20260504195007 12 321 1.6 6.4 0.00 0.00 0.00 42 1013.2
20260504194536 13 53 3.2 6.4 0.00 0.00 0.00 43 1013.2
20260504194008 12 78 0.0 8.0 0.00 0.00 0.00 46 1013.3
20260504193026 12 164 3.2 9.7 0.00 0.00 0.00 43 1013.3
20260504192507 12 146 3.2 9.7 0.00 0.00 0.00 45 1013.3
20260504192009 12 107 4.8 11.3 0.00 0.00 0.00 42 1013.3
20260504191529 12 168 6.4 11.3 0.00 0.00 0.00 41 1013.3
20260504191011 12 201 4.8 11.3 0.00 0.00 0.00 42 1013.3
20260504190504 13 109 1.6 11.3 0.00 0.00 0.00 42 1013.4
20260504190012 13 69 3.2 12.9 0.00 0.00 0.00 39 1013.5
20260504185503 12 68 4.8 12.9 0.00 0.00 0.00 40 1013.5
20260504185004 13 213 1.6 12.9 0.00 0.00 0.00 42 1013.5
20260504184523 12 281 3.2 12.9 0.00 0.00 0.00 41 1013.5
20260504184007 12 244 3.2 11.3 0.00 0.00 0.00 42 1013.6
20260504183509 12 146 4.8 11.3 0.00 0.00 0.00 42 1013.5
20260504183022 12 173 3.2 9.7 0.00 0.00 0.00 45 1013.6
20260504182509 12 204 3.2 11.3 0.00 0.00 0.00 43 1013.6
20260504182011 12 176 0.0 11.3 0.00 0.00 0.00 42 1013.6
20260504181524 12 188 1.6 9.7 0.00 0.00 0.00 44 1013.8
20260504181015 12 180 3.2 6.4 0.00 0.00 0.00 43 1013.8
20260504180511 12 86 1.6 6.4 0.00 0.00 0.00 44 1013.8
20260504180032 11 86 1.6 9.7 0.00 0.00 0.00 44 1013.9
20260504175509 11 115 3.2 9.7 0.00 0.00 0.00 44 1013.9
20260504175007 11 166 4.8 11.3 0.00 0.00 0.00 44 1013.8
20260504174516 11 124 3.2 11.3 0.00 0.00 0.00 45 1013.9
20260504174008 11 155 1.6 8.0 0.00 0.00 0.00 46 1013.9
20260504173507 11 126 1.6 8.0 0.00 0.00 0.00 46 1013.9
20260504173022 11 108 1.6 11.3 0.00 0.00 0.00 47 1014.1
20260504172508 11 109 3.2 11.3 0.00 0.00 0.00 47 1014.1
20260504172006 11 158 3.2 11.3 0.00 0.00 0.00 46 1014.1
20260504171520 10 167 4.8 11.3 0.00 0.00 0.00 47 1014.2
20260504171014 10 112 1.6 6.4 0.00 0.00 0.00 50 1014.3
20260504170509 10 87 3.2 6.4 0.00 0.00 0.00 49 1014.3
20260504151003 8 247 3.2 11.3 0.00 0.00 0.00 52 1015.1
20260504150507 8 254 1.6 6.4 0.00 0.00 0.00 54 1015.2
20260504141010 6 122 3.2 9.7 0.00 0.00 0.00 56 1015.0
20260504140505 6 298 3.2 9.7 0.00 0.00 0.00 57 1014.9
20260504130507 6 123 3.2 6.4 0.00 0.00 0.00 55 1014.0
20260504110508 7 169 0.0 6.4 0.00 0.00 0.00 51 1013.1
20260504100506 8 5 0.0 11.3 0.00 0.00 0.00 50 1012.3
20260504081525 7 257 0.0 8.0 0.00 0.00 0.00 62 1011.1
20260504081007 7 296 0.0 8.0 0.00 0.00 0.00 66 1011.1
20260504080507 6 169 1.6 8.0 0.00 0.00 0.00 70 1011.2
20260504050512 8 344 1.6 3.2 0.00 0.00 0.00 56 1010.6
20260504050016 8 336 0.0 1.6 0.00 0.00 0.00 57 1010.5
20260504045507 8 336 0.0 3.2 0.00 0.00 0.00 55 1010.5
20260504045006 8 336 0.0 3.2 0.00 0.00 0.00 56 1010.5
20260504044521 8 333 0.0 3.2 0.00 0.00 0.00 56 1010.5
20260504044008 8 333 0.0 4.8 0.00 0.00 0.00 59 1010.5
20260504043508 8 350 0.0 4.8 0.00 0.00 0.00 53 1010.5
20260504043007 8 346 1.6 4.8 0.00 0.00 0.00 56 1010.5
20260504042504 8 355 0.0 3.2 0.00 0.00 0.00 56 1010.5
20260504042002 9 355 0.0 3.2 0.00 0.00 0.00 54 1010.5
20260504041510 9 355 0.0 1.6 0.00 0.00 0.00 52 1010.5
20260504041004 9 355 0.0 3.2 0.00 0.00 0.00 52 1010.4
20260504040507 9 355 0.0 3.2 0.00 0.00 0.00 53 1010.4
20260504040014 10 355 0.0 3.2 0.00 0.00 0.00 50 1010.4
20260504035506 10 355 0.0 3.2 0.00 0.00 0.00 52 1010.4
20260504035007 10 355 0.0 1.6 0.00 0.00 0.00 50 1010.4
20260504034536 10 355 0.0 1.6 0.00 0.00 0.00 48 1010.4
20260504034007 10 355 0.0 1.6 0.00 0.00 0.00 48 1010.4
20260504033507 11 355 0.0 3.2 0.00 0.00 0.00 48 1010.3
20260504033029 11 355 1.6 3.2 0.00 0.00 0.00 47 1010.3
20260504032508 11 351 0.0 3.2 0.00 0.00 0.00 46 1010.4
20260504032011 12 351 0.0 3.2 0.00 0.00 0.00 43 1010.2
20260504031508 12 351 0.0 3.2 0.00 0.00 0.00 42 1010.2
20260504031003 12 351 0.0 3.2 0.00 0.00 0.00 42 1010.2
20260504030503 13 350 0.0 1.6 0.00 0.00 0.00 41 1010.1
20260504030014 13 350 0.0 1.6 0.00 0.00 0.00 40 1010.1
20260504025508 13 350 0.0 1.6 0.00 0.00 0.00 38 1010.0
20260504025004 14 350 0.0 3.2 0.00 0.00 0.00 37 1010.0
20260504024518 15 350 0.0 4.8 0.00 0.00 0.00 34 1010.0
20260504024005 15 352 1.6 4.8 0.00 0.00 0.00 32 1009.9
20260504023507 16 336 1.6 4.8 0.00 0.00 0.00 31 1009.9
20260504023024 16 347 0.0 4.8 0.00 0.00 0.00 29 1010.0
20260504022508 16 342 0.0 4.8 0.00 0.00 0.00 28 1009.9
20260504022008 17 298 1.6 4.8 0.00 0.00 0.00 26 1009.9
20260504021525 17 314 0.0 4.8 0.00 0.00 0.00 26 1009.9
20260504021008 18 317 0.0 4.8 0.00 0.00 0.00 26 1009.9
20260504020509 18 241 1.6 4.8 0.00 0.00 0.00 23 1009.9
20260504020008 18 215 1.6 4.8 0.00 0.00 0.00 23 1009.9
20260504015504 18 282 0.0 4.8 0.00 0.00 0.00 23 1009.9
20260504015004 18 240 0.0 12.9 0.00 0.00 0.00 23 1009.9
20260504014519 19 213 3.2 12.9 0.00 0.00 0.00 23 1009.9
20260504014009 19 244 1.6 8.0 0.00 0.00 0.00 22 1010.0
20260504013506 19 360 3.2 11.3 0.00 0.00 0.00 24 1010.0
20260504013019 19 306 3.2 11.3 0.00 0.00 0.00 21 1010.0
20260504012507 19 236 1.6 9.7 0.00 0.00 0.00 22 1010.1
20260504012008 20 217 1.6 9.7 0.00 0.00 0.00 22 1010.1
20260504011523 20 225 3.2 12.9 0.00 0.00 0.00 22 1010.1
20260504011007 20 200 1.6 12.9 0.00 0.00 0.00 21 1010.1
20260504010509 20 249 3.2 9.7 0.00 0.00 0.00 21 1010.2
20260504010028 20 314 3.2 16.1 0.00 0.00 0.00 20 1010.2
20260504005507 20 18 3.2 16.1 0.00 0.00 0.00 22 1010.3
20260504005010 20 229 1.6 8.0 0.00 0.00 0.00 19 1010.3
20260504004510 20 272 1.6 16.1 0.00 0.00 0.00 20 1010.4
20260504004004 20 309 3.2 16.1 0.00 0.00 0.00 19 1010.4
20260504003506 20 198 4.8 12.9 0.00 0.00 0.00 18 1010.5
20260504003018 20 268 4.8 19.3 0.00 0.00 0.00 16 1010.5
20260504002508 20 344 4.8 19.3 0.00 0.00 0.00 16 1010.7
20260504002006 20 293 4.8 14.5 0.00 0.00 0.00 16 1010.8
20260504001522 20 348 4.8 14.5 0.00 0.00 0.00 14 1010.8
20260504001006 20 287 1.6 24.1 0.00 0.00 0.00 15 1010.8
20260504000510 20 335 6.4 24.1 0.00 0.00 0.00 13 1010.8
20260504000026 20 235 3.2 25.7 0.00 0.00 0.00 14 1010.8
20260503235509 20 233 4.8 25.7 0.00 0.00 0.00 13 1010.7